owner,sensor,date,latitude,longitude,vertical_datum,wind_speed,wind_to_direction,wind_speed_of_gust,qcFlag 
DISL,ioos:station:DISL:KATA:1,2013-03-01T00:00:00Z,30.2583,-88.2131,0.0,8.89,337.3,-9999.0,'1111122,1111122,1111122' 
DISL,ioos:station:DISL:KATA:1,2013-03-01T00:30:00Z,30.2583,-88.2131,0.0,8.89,335.6,-9999.0,'1111122,1111122,1111122' 
DISL,ioos:station:DISL:KATA:1,2013-03-01T01:00:00Z,30.2583,-88.2131,0.0,8.78,338.5,-9999.0,'1111122,1111122,1111122' 
DISL,ioos:station:DISL:KATA:1,2013-03-01T01:30:00Z,30.2583,-88.2131,0.0,9.2,330.2,-9999.0,'1111122,1111122,1111122' 
DISL,ioos:station:DISL:KATA:1,2013-03-01T02:00:00Z,30.2583,-88.2131,0.0,7.59,330.2,-9999.0,'1111122,1111122,1111122' 
DISL,ioos:station:DISL:KATA:1,2013-03-01T02:30:00Z,30.2583,-88.2131,0.0,7.47,324.9,-9999.0,'1111122,1111122,1111122' 
DISL,ioos:station:DISL:KATA:1,2013-03-01T03:00:00Z,30.2583,-88.2131,0.0,8.03,324.6,-9999.0,'1111122,1111122,1111122' 
DISL,ioos:station:DISL:KATA:1,2013-03-01T03:30:00Z,30.2583,-88.2131,0.0,8.14,317.8,-9999.0,'1111122,1111122,1111122' 
DISL,ioos:station:DISL:KATA:1,2013-03-01T04:00:00Z,30.2583,-88.2131,0.0,7.54,315.9,-9999.0,'1111122,1111122,1111122' 
DISL,ioos:station:DISL:KATA:1,2013-03-01T04:30:00Z,30.2583,-88.2131,0.0,7.19,318.9,-9999.0,'1111122,1111122,1111122' 
DISL,ioos:station:DISL:KATA:1,2013-03-01T05:00:00Z,30.2583,-88.2131,0.0,7.31,303.4,-9999.0,'1111122,1111122,1111122' 
DISL,ioos:station:DISL:KATA:1,2013-03-01T05:30:00Z,30.2583,-88.2131,0.0,7.65,324.3,-9999.0,'1111122,1111122,1111122' 
DISL,ioos:station:DISL:KATA:1,2013-03-01T06:00:00Z,30.2583,-88.2131,0.0,6.92,336.6,-9999.0,'1111122,1111122,1111122' 
DISL,ioos:station:DISL:KATA:1,2013-03-01T06:30:00Z,30.2583,-88.2131,0.0,7.14,353.2,-9999.0,'1111122,1111122,1111122' 
DISL,ioos:station:DISL:KATA:1,2013-03-01T07:00:00Z,30.2583,-88.2131,0.0,6.58,351.5,-9999.0,'1111122,1111122,1111122' 
DISL,ioos:station:DISL:KATA:1,2013-03-01T07:30:00Z,30.2583,-88.2131,0.0,6.26,359.9,-9999.0,'1111122,1111122,1111122' 
DISL,ioos:station:DISL:KATA:1,2013-03-01T08:00:00Z,30.2583,-88.2131,0.0,6.68,0.692,-9999.0,'1111122,1111122,1111122' 
DISL,ioos:station:DISL:KATA:1,2013-03-01T08:30:00Z,30.2583,-88.2131,0.0,6.04,358.5,-9999.0,'1111122,1111122,1111122' 
DISL,ioos:station:DISL:KATA:1,2013-03-01T09:00:00Z,30.2583,-88.2131,0.0,6.91,0.246,-9999.0,'1111122,1111122,1111122' 
DISL,ioos:station:DISL:KATA:1,2013-03-01T09:30:00Z,30.2583,-88.2131,0.0,6.28,9.59,-9999.0,'1111122,1111122,1111122' 
DISL,ioos:station:DISL:KATA:1,2013-03-01T10:00:00Z,30.2583,-88.2131,0.0,6.27,9.78,-9999.0,'1111122,1111122,1111122' 
DISL,ioos:station:DISL:KATA:1,2013-03-01T10:30:00Z,30.2583,-88.2131,0.0,6.21,8.86,-9999.0,'1111122,1111122,1111122' 
DISL,ioos:station:DISL:KATA:1,2013-03-01T11:00:00Z,30.2583,-88.2131,0.0,6.05,10.08,-9999.0,'1111122,1111122,1111122' 
DISL,ioos:station:DISL:KATA:1,2013-03-01T11:30:00Z,30.2583,-88.2131,0.0,5.47,13.45,-9999.0,'1111122,1111122,1111122' 
DISL,ioos:station:DISL:KATA:1,2013-03-01T12:00:00Z,30.2583,-88.2131,0.0,5.41,11.56,-9999.0,'1111122,1111122,1111122' 
DISL,ioos:station:DISL:KATA:1,2013-03-01T12:30:00Z,30.2583,-88.2131,0.0,4.8,6.029,-9999.0,'1111122,1111122,1111122' 
DISL,ioos:station:DISL:KATA:1,2013-03-01T13:00:00Z,30.2583,-88.2131,0.0,4.13,7.847,-9999.0,'1111122,1111122,1111122' 
DISL,ioos:station:DISL:KATA:1,2013-03-01T13:30:00Z,30.2583,-88.2131,0.0,3.68,21.7,-9999.0,'1111122,1111122,1111122' 
DISL,ioos:station:DISL:KATA:1,2013-03-01T14:00:00Z,30.2583,-88.2131,0.0,3.58,25.14,-9999.0,'1111122,1111122,1111122' 
DISL,ioos:station:DISL:KATA:1,2013-03-01T14:30:00Z,30.2583,-88.2131,0.0,2.16,29.32,-9999.0,'1111122,1111122,1111122' 
DISL,ioos:station:DISL:KATA:1,2013-03-01T15:00:00Z,30.2583,-88.2131,0.0,2.21,39.12,-9999.0,'1111122,1111122,1111122' 
DISL,ioos:station:DISL:KATA:1,2013-03-01T15:30:00Z,30.2583,-88.2131,0.0,1.82,47.3,-9999.0,'1111122,1111122,1111122' 
DISL,ioos:station:DISL:KATA:1,2013-03-01T16:00:00Z,30.2583,-88.2131,0.0,1.78,33.28,-9999.0,'1111122,1111122,1111122' 
DISL,ioos:station:DISL:KATA:1,2013-03-01T16:30:00Z,30.2583,-88.2131,0.0,1.17,11.51,-9999.0,'1111122,1111122,1111122' 
DISL,ioos:station:DISL:KATA:1,2013-03-01T17:00:00Z,30.2583,-88.2131,0.0,1.73,328.1,-9999.0,'1111122,1111122,1111122' 
DISL,ioos:station:DISL:KATA:1,2013-03-01T17:30:00Z,30.2583,-88.2131,0.0,1.61,287.6,-9999.0,'1111122,1111122,1111122' 
DISL,ioos:station:DISL:KATA:1,2013-03-01T18:00:00Z,30.2583,-88.2131,0.0,2.74,240.4,-9999.0,'1111122,1111122,1111122' 
DISL,ioos:station:DISL:KATA:1,2013-03-01T18:30:00Z,30.2583,-88.2131,0.0,4.2,239.5,-9999.0,'1111122,1111122,1111122' 
DISL,ioos:station:DISL:KATA:1,2013-03-01T19:00:00Z,30.2583,-88.2131,0.0,4.52,237.5,-9999.0,'1111122,1111122,1111122' 
DISL,ioos:station:DISL:KATA:1,2013-03-01T19:30:00Z,30.2583,-88.2131,0.0,5.84,231.0,-9999.0,'1111122,1111122,1111122' 
DISL,ioos:station:DISL:KATA:1,2013-03-01T20:00:00Z,30.2583,-88.2131,0.0,5.46,230.8,-9999.0,'1111122,1111122,1111122' 
DISL,ioos:station:DISL:KATA:1,2013-03-01T20:30:00Z,30.2583,-88.2131,0.0,6.41,239.1,-9999.0,'1111122,1111122,1111122' 
DISL,ioos:station:DISL:KATA:1,2013-03-01T21:00:00Z,30.2583,-88.2131,0.0,6.85,248.3,-9999.0,'1111122,1111122,1111122' 
DISL,ioos:station:DISL:KATA:1,2013-03-01T21:30:00Z,30.2583,-88.2131,0.0,7.03,245.3,-9999.0,'1111122,1111122,1111122' 
DISL,ioos:station:DISL:KATA:1,2013-03-01T22:00:00Z,30.2583,-88.2131,0.0,7.85,245.6,-9999.0,'1111122,1111122,1111122' 
DISL,ioos:station:DISL:KATA:1,2013-03-01T22:30:00Z,30.2583,-88.2131,0.0,7.25,250.1,-9999.0,'1111122,1111122,1111122' 
DISL,ioos:station:DISL:KATA:1,2013-03-01T23:00:00Z,30.2583,-88.2131,0.0,7.29,251.6,-9999.0,'1111122,1111122,1111122' 
DISL,ioos:station:DISL:KATA:1,2013-03-01T23:30:00Z,30.2583,-88.2131,0.0,6.22,253.1,-9999.0,'1111122,1111122,1111122' 
DISL,ioos:station:DISL:KATA:1,2013-03-02T00:00:00Z,30.2583,-88.2131,0.0,5.56,286.0,-9999.0,'1111122,1111122,1111122' 
DISL,ioos:station:DISL:KATA:1,2013-03-02T00:30:00Z,30.2583,-88.2131,0.0,6.55,338.3,-9999.0,'1111122,1111122,1111122' 
DISL,ioos:station:DISL:KATA:1,2013-03-02T01:00:00Z,30.2583,-88.2131,0.0,6.87,335.4,-9999.0,'1111122,1111122,1111122' 
DISL,ioos:station:DISL:KATA:1,2013-03-02T01:30:00Z,30.2583,-88.2131,0.0,7.31,331.9,-9999.0,'1111122,1111122,1111122' 
DISL,ioos:station:DISL:KATA:1,2013-03-02T02:00:00Z,30.2583,-88.2131,0.0,8.94,330.0,-9999.0,'1111122,1111122,1111122' 
DISL,ioos:station:DISL:KATA:1,2013-03-02T02:30:00Z,30.2583,-88.2131,0.0,10.14,337.4,-9999.0,'1111122,1111122,1111122' 
DISL,ioos:station:DISL:KATA:1,2013-03-02T03:00:00Z,30.2583,-88.2131,0.0,9.93,336.0,-9999.0,'1111122,1111122,1111122' 
DISL,ioos:station:DISL:KATA:1,2013-03-02T03:30:00Z,30.2583,-88.2131,0.0,11.15,344.8,-9999.0,'1111122,1111122,1111122' 
DISL,ioos:station:DISL:KATA:1,2013-03-02T04:00:00Z,30.2583,-88.2131,0.0,12.61,340.5,-9999.0,'1111122,1111122,1111122' 
DISL,ioos:station:DISL:KATA:1,2013-03-02T04:30:00Z,30.2583,-88.2131,0.0,10.99,355.0,-9999.0,'1111122,1111122,1111122' 
DISL,ioos:station:DISL:KATA:1,2013-03-02T05:00:00Z,30.2583,-88.2131,0.0,9.86,352.6,-9999.0,'1111122,1111122,1111122' 
DISL,ioos:station:DISL:KATA:1,2013-03-02T05:30:00Z,30.2583,-88.2131,0.0,8.17,357.4,-9999.0,'1111122,1111122,1111122' 
DISL,ioos:station:DISL:KATA:1,2013-03-02T06:00:00Z,30.2583,-88.2131,0.0,8.43,354.3,-9999.0,'1111122,1111122,1111122' 
DISL,ioos:station:DISL:KATA:1,2013-03-02T06:30:00Z,30.2583,-88.2131,0.0,8.29,359.9,-9999.0,'1111122,1111122,1111122' 
DISL,ioos:station:DISL:KATA:1,2013-03-02T07:00:00Z,30.2583,-88.2131,0.0,7.84,355.2,-9999.0,'1111122,1111122,1111122' 
DISL,ioos:station:DISL:KATA:1,2013-03-02T07:30:00Z,30.2583,-88.2131,0.0,8.26,353.0,-9999.0,'1111122,1111122,1111122' 
DISL,ioos:station:DISL:KATA:1,2013-03-02T08:00:00Z,30.2583,-88.2131,0.0,8.22,346.7,-9999.0,'1111122,1111122,1111122' 
DISL,ioos:station:DISL:KATA:1,2013-03-02T08:30:00Z,30.2583,-88.2131,0.0,8.92,342.0,-9999.0,'1111122,1111122,1111122' 
DISL,ioos:station:DISL:KATA:1,2013-03-02T09:00:00Z,30.2583,-88.2131,0.0,9.3,342.3,-9999.0,'1111122,1111122,1111122' 
DISL,ioos:station:DISL:KATA:1,2013-03-02T09:30:00Z,30.2583,-88.2131,0.0,8.28,346.8,-9999.0,'1111122,1111122,1111122' 
DISL,ioos:station:DISL:KATA:1,2013-03-02T10:00:00Z,30.2583,-88.2131,0.0,7.6,340.5,-9999.0,'1111122,1111122,1111122' 
DISL,ioos:station:DISL:KATA:1,2013-03-02T10:30:00Z,30.2583,-88.2131,0.0,7.56,337.0,-9999.0,'1111122,1111122,1111122' 
DISL,ioos:station:DISL:KATA:1,2013-03-02T11:00:00Z,30.2583,-88.2131,0.0,7.57,341.0,-9999.0,'1111122,1111122,1111122' 
DISL,ioos:station:DISL:KATA:1,2013-03-02T11:30:00Z,30.2583,-88.2131,0.0,6.64,336.5,-9999.0,'1111122,1111122,1111122' 
DISL,ioos:station:DISL:KATA:1,2013-03-02T12:00:00Z,30.2583,-88.2131,0.0,7.16,335.7,-9999.0,'1111122,1111122,1111122' 
DISL,ioos:station:DISL:KATA:1,2013-03-02T12:30:00Z,30.2583,-88.2131,0.0,7.47,336.2,-9999.0,'1111122,1111122,1111122' 
DISL,ioos:station:DISL:KATA:1,2013-03-02T13:00:00Z,30.2583,-88.2131,0.0,7.51,334.5,-9999.0,'1111122,1111122,1111122' 
DISL,ioos:station:DISL:KATA:1,2013-03-02T13:30:00Z,30.2583,-88.2131,0.0,8.03,340.2,-9999.0,'1111122,1111122,1111122' 
DISL,ioos:station:DISL:KATA:1,2013-03-02T14:00:00Z,30.2583,-88.2131,0.0,7.06,331.0,-9999.0,'1111122,1111122,1111122' 
DISL,ioos:station:DISL:KATA:1,2013-03-02T14:30:00Z,30.2583,-88.2131,0.0,6.13,337.7,-9999.0,'1111122,1111122,1111122' 
DISL,ioos:station:DISL:KATA:1,2013-03-02T15:00:00Z,30.2583,-88.2131,0.0,5.76,337.7,-9999.0,'1111122,1111122,1111122' 
DISL,ioos:station:DISL:KATA:1,2013-03-02T15:30:00Z,30.2583,-88.2131,0.0,6.21,346.3,-9999.0,'1111122,1111122,1111122' 
DISL,ioos:station:DISL:KATA:1,2013-03-02T16:00:00Z,30.2583,-88.2131,0.0,5.71,352.9,-9999.0,'1111122,1111122,1111122' 
DISL,ioos:station:DISL:KATA:1,2013-03-02T16:30:00Z,30.2583,-88.2131,0.0,5.58,342.3,-9999.0,'1111122,1111122,1111122' 
DISL,ioos:station:DISL:KATA:1,2013-03-02T17:00:00Z,30.2583,-88.2131,0.0,6.42,330.6,-9999.0,'1111122,1111122,1111122' 
DISL,ioos:station:DISL:KATA:1,2013-03-02T17:30:00Z,30.2583,-88.2131,0.0,6.2,324.4,-9999.0,'1111122,1111122,1111122' 
DISL,ioos:station:DISL:KATA:1,2013-03-02T18:00:00Z,30.2583,-88.2131,0.0,5.91,305.0,-9999.0,'1111122,1111122,1111122' 
DISL,ioos:station:DISL:KATA:1,2013-03-02T18:30:00Z,30.2583,-88.2131,0.0,9.33,304.5,-9999.0,'1111122,1111122,1111122' 
DISL,ioos:station:DISL:KATA:1,2013-03-02T19:00:00Z,30.2583,-88.2131,0.0,7.1,309.7,-9999.0,'1111122,1111122,1111122' 
DISL,ioos:station:DISL:KATA:1,2013-03-02T19:30:00Z,30.2583,-88.2131,0.0,7.9,317.9,-9999.0,'1111122,1111122,1111122' 
DISL,ioos:station:DISL:KATA:1,2013-03-02T20:00:00Z,30.2583,-88.2131,0.0,10.16,324.0,-9999.0,'1111122,1111122,1111122' 
DISL,ioos:station:DISL:KATA:1,2013-03-02T20:30:00Z,30.2583,-88.2131,0.0,10.0,327.3,-9999.0,'1111122,1111122,1111122' 
DISL,ioos:station:DISL:KATA:1,2013-03-02T21:00:00Z,30.2583,-88.2131,0.0,9.24,326.0,-9999.0,'1111122,1111122,1111122' 
DISL,ioos:station:DISL:KATA:1,2013-03-02T21:30:00Z,30.2583,-88.2131,0.0,10.57,328.1,-9999.0,'1111122,1111122,1111122' 
DISL,ioos:station:DISL:KATA:1,2013-03-02T22:00:00Z,30.2583,-88.2131,0.0,10.1,327.6,-9999.0,'1111122,1111122,1111122' 
DISL,ioos:station:DISL:KATA:1,2013-03-02T22:30:00Z,30.2583,-88.2131,0.0,9.89,342.7,-9999.0,'1111122,1111122,1111122' 
DISL,ioos:station:DISL:KATA:1,2013-03-02T23:00:00Z,30.2583,-88.2131,0.0,10.33,337.8,-9999.0,'1111122,1111122,1111122' 
DISL,ioos:station:DISL:KATA:1,2013-03-02T23:30:00Z,30.2583,-88.2131,0.0,10.73,345.3,-9999.0,'1111122,1111122,1111122' 
DISL,ioos:station:DISL:KATA:1,2013-03-03T00:00:00Z,30.2583,-88.2131,0.0,10.19,347.0,-9999.0,'1111122,1111122,1111122' 
DISL,ioos:station:DISL:KATA:1,2013-03-03T00:30:00Z,30.2583,-88.2131,0.0,10.85,337.1,-9999.0,'1111122,1111122,1111122' 
DISL,ioos:station:DISL:KATA:1,2013-03-03T01:00:00Z,30.2583,-88.2131,0.0,10.35,332.3,-9999.0,'1111122,1111122,1111122' 
DISL,ioos:station:DISL:KATA:1,2013-03-03T01:30:00Z,30.2583,-88.2131,0.0,10.06,349.6,-9999.0,'1111122,1111122,1111122' 
DISL,ioos:station:DISL:KATA:1,2013-03-03T02:00:00Z,30.2583,-88.2131,0.0,9.71,338.6,-9999.0,'1111122,1111122,1111122' 
DISL,ioos:station:DISL:KATA:1,2013-03-03T02:30:00Z,30.2583,-88.2131,0.0,9.82,335.8,-9999.0,'1111122,1111122,1111122' 
DISL,ioos:station:DISL:KATA:1,2013-03-03T03:00:00Z,30.2583,-88.2131,0.0,9.17,341.0,-9999.0,'1111122,1111122,1111122' 
DISL,ioos:station:DISL:KATA:1,2013-03-03T03:30:00Z,30.2583,-88.2131,0.0,9.52,330.5,-9999.0,'1111122,1111122,1111122' 
DISL,ioos:station:DISL:KATA:1,2013-03-03T04:00:00Z,30.2583,-88.2131,0.0,9.65,342.3,-9999.0,'1111122,1111122,1111122' 
DISL,ioos:station:DISL:KATA:1,2013-03-03T04:30:00Z,30.2583,-88.2131,0.0,10.0,330.5,-9999.0,'1111122,1111122,1111122' 
DISL,ioos:station:DISL:KATA:1,2013-03-03T05:00:00Z,30.2583,-88.2131,0.0,11.02,335.4,-9999.0,'1111122,1111122,1111122' 
DISL,ioos:station:DISL:KATA:1,2013-03-03T05:30:00Z,30.2583,-88.2131,0.0,7.89,342.7,-9999.0,'1111122,1111122,1111122' 
DISL,ioos:station:DISL:KATA:1,2013-03-03T06:00:00Z,30.2583,-88.2131,0.0,8.37,342.0,-9999.0,'1111122,1111122,1111122' 
DISL,ioos:station:DISL:KATA:1,2013-03-03T06:30:00Z,30.2583,-88.2131,0.0,8.13,349.0,-9999.0,'1111122,1111122,1111122' 
DISL,ioos:station:DISL:KATA:1,2013-03-03T07:00:00Z,30.2583,-88.2131,0.0,7.84,338.8,-9999.0,'1111122,1111122,1111122' 
DISL,ioos:station:DISL:KATA:1,2013-03-03T07:30:00Z,30.2583,-88.2131,0.0,8.92,328.0,-9999.0,'1111122,1111122,1111122' 
DISL,ioos:station:DISL:KATA:1,2013-03-03T08:00:00Z,30.2583,-88.2131,0.0,9.38,330.8,-9999.0,'1111122,1111122,1111122' 
DISL,ioos:station:DISL:KATA:1,2013-03-03T08:30:00Z,30.2583,-88.2131,0.0,8.83,333.6,-9999.0,'1111122,1111122,1111122' 
DISL,ioos:station:DISL:KATA:1,2013-03-03T09:00:00Z,30.2583,-88.2131,0.0,9.56,332.8,-9999.0,'1111122,1111122,1111122' 
DISL,ioos:station:DISL:KATA:1,2013-03-03T09:30:00Z,30.2583,-88.2131,0.0,8.59,340.4,-9999.0,'1111122,1111122,1111122' 
DISL,ioos:station:DISL:KATA:1,2013-03-03T10:00:00Z,30.2583,-88.2131,0.0,8.88,343.5,-9999.0,'1111122,1111122,1111122' 
DISL,ioos:station:DISL:KATA:1,2013-03-03T10:30:00Z,30.2583,-88.2131,0.0,8.25,339.6,-9999.0,'1111122,1111122,1111122' 
DISL,ioos:station:DISL:KATA:1,2013-03-03T11:00:00Z,30.2583,-88.2131,0.0,7.53,336.2,-9999.0,'1111122,1111122,1111122' 
DISL,ioos:station:DISL:KATA:1,2013-03-03T11:30:00Z,30.2583,-88.2131,0.0,8.42,329.7,-9999.0,'1111122,1111122,1111122' 
DISL,ioos:station:DISL:KATA:1,2013-03-03T12:00:00Z,30.2583,-88.2131,0.0,8.38,331.2,-9999.0,'1111122,1111122,1111122' 
DISL,ioos:station:DISL:KATA:1,2013-03-03T12:30:00Z,30.2583,-88.2131,0.0,8.75,338.2,-9999.0,'1111122,1111122,1111122' 
DISL,ioos:station:DISL:KATA:1,2013-03-03T13:00:00Z,30.2583,-88.2131,0.0,9.07,340.1,-9999.0,'1111122,1111122,1111122' 
DISL,ioos:station:DISL:KATA:1,2013-03-03T13:30:00Z,30.2583,-88.2131,0.0,8.26,334.7,-9999.0,'1111122,1111122,1111122' 
DISL,ioos:station:DISL:KATA:1,2013-03-03T14:00:00Z,30.2583,-88.2131,0.0,7.64,339.7,-9999.0,'1111122,1111122,1111122' 
DISL,ioos:station:DISL:KATA:1,2013-03-03T14:30:00Z,30.2583,-88.2131,0.0,7.43,350.9,-9999.0,'1111122,1111122,1111122' 
DISL,ioos:station:DISL:KATA:1,2013-03-03T15:00:00Z,30.2583,-88.2131,0.0,7.01,339.9,-9999.0,'1111122,1111122,1111122' 
DISL,ioos:station:DISL:KATA:1,2013-03-03T15:30:00Z,30.2583,-88.2131,0.0,6.85,329.4,-9999.0,'1111122,1111122,1111122' 
DISL,ioos:station:DISL:KATA:1,2013-03-03T16:00:00Z,30.2583,-88.2131,0.0,5.99,320.4,-9999.0,'1111122,1111122,1111122' 
DISL,ioos:station:DISL:KATA:1,2013-03-03T16:30:00Z,30.2583,-88.2131,0.0,5.83,326.6,-9999.0,'1111122,1111122,1111122' 
DISL,ioos:station:DISL:KATA:1,2013-03-03T17:00:00Z,30.2583,-88.2131,0.0,5.36,315.4,-9999.0,'1111122,1111122,1111122' 
DISL,ioos:station:DISL:KATA:1,2013-03-03T17:30:00Z,30.2583,-88.2131,0.0,5.41,304.7,-9999.0,'1111122,1111122,1111122' 
DISL,ioos:station:DISL:KATA:1,2013-03-03T18:00:00Z,30.2583,-88.2131,0.0,4.26,302.4,-9999.0,'1111122,1111122,1111122' 
DISL,ioos:station:DISL:KATA:1,2013-03-03T18:30:00Z,30.2583,-88.2131,0.0,5.21,295.0,-9999.0,'1111122,1111122,1111122' 
DISL,ioos:station:DISL:KATA:1,2013-03-03T19:00:00Z,30.2583,-88.2131,0.0,4.42,280.9,-9999.0,'1111122,1111122,1111122' 
DISL,ioos:station:DISL:KATA:1,2013-03-03T19:30:00Z,30.2583,-88.2131,0.0,5.03,287.9,-9999.0,'1111122,1111122,1111122' 
DISL,ioos:station:DISL:KATA:1,2013-03-03T20:00:00Z,30.2583,-88.2131,0.0,4.49,280.7,-9999.0,'1111122,1111122,1111122' 
DISL,ioos:station:DISL:KATA:1,2013-03-03T20:30:00Z,30.2583,-88.2131,0.0,5.48,277.7,-9999.0,'1111122,1111122,1111122' 
DISL,ioos:station:DISL:KATA:1,2013-03-03T21:00:00Z,30.2583,-88.2131,0.0,5.95,276.3,-9999.0,'1111122,1111122,1111122' 
DISL,ioos:station:DISL:KATA:1,2013-03-03T21:30:00Z,30.2583,-88.2131,0.0,6.99,258.6,-9999.0,'1111122,1111122,1111122' 
DISL,ioos:station:DISL:KATA:1,2013-03-03T22:00:00Z,30.2583,-88.2131,0.0,6.6,254.2,-9999.0,'1111122,1111122,1111122' 
DISL,ioos:station:DISL:KATA:1,2013-03-03T22:30:00Z,30.2583,-88.2131,0.0,7.3,255.8,-9999.0,'1111122,1111122,1111122' 
DISL,ioos:station:DISL:KATA:1,2013-03-03T23:00:00Z,30.2583,-88.2131,0.0,6.68,258.4,-9999.0,'1111122,1111122,1111122' 
DISL,ioos:station:DISL:KATA:1,2013-03-03T23:30:00Z,30.2583,-88.2131,0.0,7.25,259.3,-9999.0,'1111122,1111122,1111122' 
DISL,ioos:station:DISL:KATA:1,2013-03-04T00:00:00Z,30.2583,-88.2131,0.0,7.35,256.3,-9999.0,'1111122,1111122,1111122' 
DISL,ioos:station:DISL:KATA:1,2013-03-04T00:30:00Z,30.2583,-88.2131,0.0,6.74,255.7,-9999.0,'1111122,1111122,1111122' 
DISL,ioos:station:DISL:KATA:1,2013-03-04T01:00:00Z,30.2583,-88.2131,0.0,6.36,259.7,-9999.0,'1111122,1111122,1111122' 
DISL,ioos:station:DISL:KATA:1,2013-03-04T01:30:00Z,30.2583,-88.2131,0.0,5.65,266.4,-9999.0,'1111122,1111122,1111122' 
DISL,ioos:station:DISL:KATA:1,2013-03-04T02:00:00Z,30.2583,-88.2131,0.0,5.17,272.4,-9999.0,'1111122,1111122,1111122' 
DISL,ioos:station:DISL:KATA:1,2013-03-04T02:30:00Z,30.2583,-88.2131,0.0,4.86,262.1,-9999.0,'1111122,1111122,1111122' 
DISL,ioos:station:DISL:KATA:1,2013-03-04T03:00:00Z,30.2583,-88.2131,0.0,4.58,257.5,-9999.0,'1111122,1111122,1111122' 
DISL,ioos:station:DISL:KATA:1,2013-03-04T03:30:00Z,30.2583,-88.2131,0.0,5.46,262.3,-9999.0,'1111122,1111122,1111122' 
DISL,ioos:station:DISL:KATA:1,2013-03-04T04:00:00Z,30.2583,-88.2131,0.0,5.61,265.0,-9999.0,'1111122,1111122,1111122' 
DISL,ioos:station:DISL:KATA:1,2013-03-04T04:30:00Z,30.2583,-88.2131,0.0,4.92,270.7,-9999.0,'1111122,1111122,1111122' 
DISL,ioos:station:DISL:KATA:1,2013-03-04T05:00:00Z,30.2583,-88.2131,0.0,4.14,261.9,-9999.0,'1111122,1111122,1111122' 
DISL,ioos:station:DISL:KATA:1,2013-03-04T05:30:00Z,30.2583,-88.2131,0.0,3.73,260.9,-9999.0,'1111122,1111122,1111122' 
DISL,ioos:station:DISL:KATA:1,2013-03-04T06:00:00Z,30.2583,-88.2131,0.0,2.68,266.7,-9999.0,'1111122,1111122,1111122' 
DISL,ioos:station:DISL:KATA:1,2013-03-04T06:30:00Z,30.2583,-88.2131,0.0,2.75,261.7,-9999.0,'1111122,1111122,1111122' 
DISL,ioos:station:DISL:KATA:1,2013-03-04T07:00:00Z,30.2583,-88.2131,0.0,2.83,274.9,-9999.0,'1111122,1111122,1111122' 
DISL,ioos:station:DISL:KATA:1,2013-03-04T07:30:00Z,30.2583,-88.2131,0.0,2.27,253.4,-9999.0,'1111122,1111122,1111122' 
DISL,ioos:station:DISL:KATA:1,2013-03-04T08:00:00Z,30.2583,-88.2131,0.0,3.22,228.9,-9999.0,'1111122,1111122,1111122' 
DISL,ioos:station:DISL:KATA:1,2013-03-04T08:30:00Z,30.2583,-88.2131,0.0,3.53,229.5,-9999.0,'1111122,1111122,1111122' 
DISL,ioos:station:DISL:KATA:1,2013-03-04T09:00:00Z,30.2583,-88.2131,0.0,3.35,222.9,-9999.0,'1111122,1111122,1111122' 
DISL,ioos:station:DISL:KATA:1,2013-03-04T09:30:00Z,30.2583,-88.2131,0.0,2.74,204.2,-9999.0,'1111122,1111122,1111122' 
DISL,ioos:station:DISL:KATA:1,2013-03-04T10:00:00Z,30.2583,-88.2131,0.0,2.84,209.7,-9999.0,'1111122,1111122,1111122' 
DISL,ioos:station:DISL:KATA:1,2013-03-04T10:30:00Z,30.2583,-88.2131,0.0,2.39,232.1,-9999.0,'1111122,1111122,1111122' 
DISL,ioos:station:DISL:KATA:1,2013-03-04T11:00:00Z,30.2583,-88.2131,0.0,1.62,225.5,-9999.0,'1111122,1111122,1111122' 
DISL,ioos:station:DISL:KATA:1,2013-03-04T11:30:00Z,30.2583,-88.2131,0.0,2.1,179.8,-9999.0,'1111122,1111122,1111122' 
DISL,ioos:station:DISL:KATA:1,2013-03-04T12:00:00Z,30.2583,-88.2131,0.0,1.98,169.3,-9999.0,'1111122,1111122,1111122' 
DISL,ioos:station:DISL:KATA:1,2013-03-04T12:30:00Z,30.2583,-88.2131,0.0,2.01,183.2,-9999.0,'1111122,1111122,1111122' 
DISL,ioos:station:DISL:KATA:1,2013-03-04T13:00:00Z,30.2583,-88.2131,0.0,3.01,103.5,-9999.0,'1111122,1111122,1111122' 
DISL,ioos:station:DISL:KATA:1,2013-03-04T13:30:00Z,30.2583,-88.2131,0.0,2.83,108.8,-9999.0,'1111122,1111122,1111122' 
DISL,ioos:station:DISL:KATA:1,2013-03-04T14:00:00Z,30.2583,-88.2131,0.0,3.62,121.0,-9999.0,'1111122,1111122,1111122' 
DISL,ioos:station:DISL:KATA:1,2013-03-04T14:30:00Z,30.2583,-88.2131,0.0,4.03,118.6,-9999.0,'1111122,1111122,1111122' 
DISL,ioos:station:DISL:KATA:1,2013-03-04T15:00:00Z,30.2583,-88.2131,0.0,4.24,117.6,-9999.0,'1111122,1111122,1111122' 
DISL,ioos:station:DISL:KATA:1,2013-03-04T15:30:00Z,30.2583,-88.2131,0.0,4.57,132.2,-9999.0,'1111122,1111122,1111122' 
DISL,ioos:station:DISL:KATA:1,2013-03-04T16:00:00Z,30.2583,-88.2131,0.0,5.82,127.6,-9999.0,'1111122,1111122,1111122' 
DISL,ioos:station:DISL:KATA:1,2013-03-04T16:30:00Z,30.2583,-88.2131,0.0,7.35,124.1,-9999.0,'1111122,1111122,1111122' 
DISL,ioos:station:DISL:KATA:1,2013-03-04T17:00:00Z,30.2583,-88.2131,0.0,7.26,127.9,-9999.0,'1111122,1111122,1111122' 
DISL,ioos:station:DISL:KATA:1,2013-03-04T17:30:00Z,30.2583,-88.2131,0.0,7.79,124.4,-9999.0,'1111122,1111122,1111122' 
DISL,ioos:station:DISL:KATA:1,2013-03-04T18:00:00Z,30.2583,-88.2131,0.0,6.15,124.5,-9999.0,'1111122,1111122,1111122' 
DISL,ioos:station:DISL:KATA:1,2013-03-04T18:30:00Z,30.2583,-88.2131,0.0,6.99,133.6,-9999.0,'1111122,1111122,1111122' 
DISL,ioos:station:DISL:KATA:1,2013-03-04T19:00:00Z,30.2583,-88.2131,0.0,7.21,134.4,-9999.0,'1111122,1111122,1111122' 
DISL,ioos:station:DISL:KATA:1,2013-03-04T19:30:00Z,30.2583,-88.2131,0.0,7.44,135.4,-9999.0,'1111122,1111122,1111122' 
DISL,ioos:station:DISL:KATA:1,2013-03-04T20:00:00Z,30.2583,-88.2131,0.0,7.71,128.4,-9999.0,'1111122,1111122,1111122' 
DISL,ioos:station:DISL:KATA:1,2013-03-04T20:30:00Z,30.2583,-88.2131,0.0,7.68,128.1,-9999.0,'1111122,1111122,1111122' 
DISL,ioos:station:DISL:KATA:1,2013-03-04T21:00:00Z,30.2583,-88.2131,0.0,7.08,129.8,-9999.0,'1111122,1111122,1111122' 
DISL,ioos:station:DISL:KATA:1,2013-03-04T21:30:00Z,30.2583,-88.2131,0.0,7.33,136.8,-9999.0,'1111122,1111122,1111122' 
DISL,ioos:station:DISL:KATA:1,2013-03-04T22:00:00Z,30.2583,-88.2131,0.0,7.97,143.7,-9999.0,'1111122,1111122,1111122' 
DISL,ioos:station:DISL:KATA:1,2013-03-04T22:30:00Z,30.2583,-88.2131,0.0,7.36,142.4,-9999.0,'1111122,1111122,1111122' 
DISL,ioos:station:DISL:KATA:1,2013-03-04T23:00:00Z,30.2583,-88.2131,0.0,6.81,152.9,-9999.0,'1111122,1111122,1111122' 
DISL,ioos:station:DISL:KATA:1,2013-03-04T23:30:00Z,30.2583,-88.2131,0.0,4.46,170.7,-9999.0,'1111122,1111122,1111122' 
DISL,ioos:station:DISL:KATA:1,2013-03-05T00:00:00Z,30.2583,-88.2131,0.0,2.93,178.3,-9999.0,'1111122,1111122,1111122' 
DISL,ioos:station:DISL:KATA:1,2013-03-05T00:30:00Z,30.2583,-88.2131,0.0,3.72,185.1,-9999.0,'1111122,1111122,1111122' 
DISL,ioos:station:DISL:KATA:1,2013-03-05T01:00:00Z,30.2583,-88.2131,0.0,3.93,180.9,-9999.0,'1111122,1111122,1111122' 
DISL,ioos:station:DISL:KATA:1,2013-03-05T01:30:00Z,30.2583,-88.2131,0.0,4.5,164.2,-9999.0,'1111122,1111122,1111122' 
DISL,ioos:station:DISL:KATA:1,2013-03-05T02:00:00Z,30.2583,-88.2131,0.0,5.43,171.0,-9999.0,'1111122,1111122,1111122' 
DISL,ioos:station:DISL:KATA:1,2013-03-05T02:30:00Z,30.2583,-88.2131,0.0,5.2,165.7,-9999.0,'1111122,1111122,1111122' 
DISL,ioos:station:DISL:KATA:1,2013-03-05T03:00:00Z,30.2583,-88.2131,0.0,6.2,179.2,-9999.0,'1111122,1111122,1111122' 
DISL,ioos:station:DISL:KATA:1,2013-03-05T03:30:00Z,30.2583,-88.2131,0.0,5.51,183.1,-9999.0,'1111122,1111122,1111122' 
DISL,ioos:station:DISL:KATA:1,2013-03-05T04:00:00Z,30.2583,-88.2131,0.0,5.24,189.0,-9999.0,'1111122,1111122,1111122' 
DISL,ioos:station:DISL:KATA:1,2013-03-05T04:30:00Z,30.2583,-88.2131,0.0,5.03,189.7,-9999.0,'1111122,1111122,1111122' 